Showing default

KINEIS-4C, 63301

Orbit data source: Space-Track

KINEIS-4C, 63301 is a payload satellite in SSO that was launched on Tue, 18 Mar 2025 UTC via an ELECTRON launch vehicle from the Rocket Lab Launch Complex (RLLC). Payload-class satellites include a variety of spacecraft equipped with specific instruments for various scientific and technological missions. These include communications satellites like Starlink; space stations such as the ISS; scientific satellites like the Hubble; Earth observation satellites from companies like Planet Labs, Umbra, and HawkEye 360; GPS; miniature CubeSats for education and research; and military/defense satellites.

Loading next visibility...
Identifier
63301, 2025-056B
Orbit
SSO
Last TLE update
8 hours ago
Origin
Manufacturer
KINEIS
Mission
Operational Commercial Communications
Bus & Motor
CUBESAT 16U, Unknown motor
Mass
28 kg wet, 28 kg dry
Launch date (UTC)
2025-03-18 (2 months ago)
Launch vehicle
ELECTRON
Launch site
Rocket Lab Launch Complex (RLLC)
Object type
Payload
Rocket body
Debris
Shape & HBR
Box + 2 Pan + 1 Ant, 1.6 m
Radar Cross Section
0.229 m², Medium (>0.1 m² and < 1m²)

Expand to show TLE details & history

TLE from 8 hours ago
0 KINEIS-4C
1 63301U 25056B   25140.38684721  .00002088  00000-0  32746-3 0  9995
2 63301  97.9785 266.7251 0002484 131.3346 228.8076 14.73696524  9333
Epoch: 2025-05-20T09:17Z
TLE epoch observation values (Epoch: 2025-05-20T09:17:03.598Z)
Latitude
-0.00008°
Longitude
-110.82573°
Altitude
653.453 km
Speed
7.53 km/s
True Right ascension
17h 46m 54s
True Declination
0° 00' 00"
Sunlit
Object was in full shadow at epoch
Visualization orbit readout
Latitude
-10.62291°
Longitude
-108.99562°
Altitude
655.638 km
Speed
7.528 km/s
Apparent Right ascension
16h 25m 37s
Apparent Declination
-26° 55' 45"
Sunlit
Object is in full shadow
Visualization observer readout
Local Sidereal Time
02:17:01
Azimuth
286.108° WNW
Elevation
-60.409°
Doppler factor
1
Orbital elements
Apogee altitude
648.09 km
Perigee altitude
644.6 km
Semi-major axis
7,024.482 km
Eccentricity
0.00025
Inclination
97.9785°
RAAN
266.7251°
Arg. of periapsis
131.3346°
True anomaly
Unknown
Mean anomaly
228.8076°
Eccentric anomaly
Unknown
Mean motion
3.68656 °/min
Orbital period
97.65 mins
BSTAR
0.00032746
Loading maneuver chart data...
Loading SW <> Apogee altitude chart data...
Loading historical data...
Loading historical data...
Loading historical data...
Loading historical data...
Loading historical data...
Loading historical data...
Loading historical data...

KINEIS-4C Visibility forecast

Observer location: undefined°, undefined°

Span
Click to sort rows by Start time (UTC) header in descending order
Start Az.
Max El. time (UTC)
Max El. Az.
Max El.
End time (UTC)
End Az.
8 mins2025-05-20 21:15:01.516Z13.408° NNE2025-05-20 21:19:01.516Z27.446° NE44.143°2025-05-20 21:23:01.516Z192.231° SSW
7 mins2025-05-21 08:14:01.516Z154.494° SSE2025-05-21 08:17:01.516Z66.213° ENE43.102°2025-05-21 08:21:01.516Z352.912° N
|